Flag for U.S.A. Weather past 2 weeks in Vancouver, Washington, U.S.A.

Now
85 °F

Sunny.


Feels Like: 83 °F
Forecast: 58 / 87 °F
Wind: 3 mph from North

Location: Vancouver - Pearson Airpark

Current Time: Sep 21, 2014 at 3:14:39 PM

Latest Report: Sep 21, 2014 at 2:53 PM


Visibility: 10 mi

Pressure: 29.84 "Hg

Humidity: 34%

Dew point: 53 °F

Location of VancouverLocation

Historic Weather in Vancouver — Graph

°F

Vancouver temperature yesterday

Maximum temperature yesterday: 93 °F (at 2:53 PM)
Minimum temperature yesterday: 60 °F (at 2:53 AM)
Average temperature yesterday: 76 °F

Past Weeks' High & Low Weather Summary

 TemperatureHumidityPressure
High95 °F (Sep 6, 3:53 PM)90% (Sep 8, 2:53 AM)30.22 "Hg (Sep 8, 2:53 AM)
Low47 °F (Sep 14, 6:53 AM)10% (Sep 13, 4:53 PM)29.68 "Hg (Sep 17, 5:53 PM)
Average68 °F55%29.92 "Hg
* Reported Sep 6 1:53 PM — Sep 21 1:53 PM, Vancouver, Weather by CustomWeather, © 2014

Note: Actual official high and low records may vary slightly from our data, if they occured in-between our weather recording intervals... More about our weather records

Advertising

Vancouver weather history for previous 24 hours

 ConditionsComfort  
Time TempWeatherWind HumidityBarometerVisibility
1:53 PM
Sep 21
83 °FSunny.6 mph37%29.85 "Hg10 mi
12:53 PM80 °FSunny.No wind42%29.88 "Hg10 mi
11:53 AM78 °FSunny.3 mph46%29.88 "Hg10 mi
10:53 AM73 °FSunny.3 mph55%29.89 "Hg10 mi
9:53 AM70 °FSunny.3 mph64%29.89 "Hg10 mi
8:53 AM65 °FSunny.No wind78%29.89 "Hg10 mi
7:53 AM60 °FClear.No wind83%29.88 "Hg10 mi
6:53 AM57 °FClear.No wind90%29.86 "Hg10 mi
5:53 AM60 °FClear.No wind83%29.84 "Hg10 mi
4:53 AM59 °FClear.No wind84%29.83 "Hg10 mi
3:53 AM59 °FClear.No wind87%29.82 "Hg10 mi
2:53 AM61 °FClear.No wind83%29.82 "Hg10 mi
1:53 AM63 °FClear.No wind75%29.83 "Hg10 mi
12:53 AM65 °FClear.No wind73%29.83 "Hg10 mi
11:53 PM
Sep 20
67 °FClear.3 mph71%29.83 "Hg10 mi
10:53 PM71 °FClear.5 mph61%29.82 "Hg10 mi
9:53 PM75 °FClear.5 mph42%29.82 "Hg10 mi
8:53 PM85 °FClear.7 mph25%29.80 "Hg10 mi
7:53 PM86 °FSunny.8 mph25%29.80 "Hg10 mi
6:53 PM88 °FSunny.10 mph23%29.79 "Hg10 mi
5:53 PM91 °FSunny.13 mph23%29.80 "Hg10 mi
4:53 PM92 °FSunny.12 mph23%29.81 "Hg10 mi
3:53 PM93 °FSunny.12 mph21%29.83 "Hg10 mi
Weather by CustomWeather, © 2014

See weather overviewHow to use our weather pages